Location: *
(49.2333°S, 177.3500°W)
Time: 19:12:07
(UTC+00:00)

Daily predictions for brighter satellites

Satellite Brightness Start Highest point End
(mag) Time Altitude Azimuth Time Altitude Azimuth Time Altitude Azimuth
ATLAS 5 CENTAUR R/B 3.2 12:01:18 10° SW 12:06:35 40° SE 12:08:02 33° ESE
NOSS 0 Rocket 3.8 12:10:55 85° ESE 12:10:55 85° ESE 12:17:05 10° SSE
Cosmos 1864 Rocket 4.4 12:04:45 10° SSW 12:10:50 72° W 12:10:50 72° W
CENTAUR R/B 4.0 12:06:35 10° W 12:13:29 38° SSW 12:19:40 10° SE
Meteor 1-16 Rocket 4.4 12:08:21 10° SSW 12:13:08 62° SW 12:13:08 62° SW
Timation 1 Rocket 4.4 12:09:46 10° SSW 12:15:09 67° WSW 12:15:09 67° WSW
Lacrosse 5 2.9 12:12:37 10° SW 12:15:55 40° SW 12:15:55 40° SW
Cosmos 1980 3.8 12:19:00 76° SSE 12:19:00 76° SSE 12:24:18 10° SSE
Cosmos 2297 3.8 12:13:42 10° SSW 12:18:44 69° SW 12:18:44 69° SW
Meteor 2-1 Rocket 4.3 12:14:52 10° S 12:20:14 78° SSE 12:20:14 78° SSE
Cosmos 1763 Rocket 4.0 12:24:10 54° SW 12:24:10 54° SW 12:29:14 10° SSE
ASTEX 1 4.4 12:21:29 10° SSE 12:25:41 39° ESE 12:25:41 39° ESE
Meteor 2-5 Rocket 3.9 12:27:36 71° WSW 12:27:36 71° WSW 12:33:21 10° S
Cosmos 1725 Rocket 4.3 12:21:16 10° SSW 12:27:21 55° W 12:27:21 55° W
CZ-2C R/B 3.4 12:24:53 10° SSE 12:29:37 63° ESE 12:29:37 63° ESE
CBERS-1 4.2 12:32:20 69° SSE 12:32:20 69° SSE 12:37:00 10° SSW
Cosmos 2233 Rocket 3.9 12:28:42 10° SSW 12:35:02 75° W 12:35:04 75° W
IRS-P3 4.3 12:37:46 67° SW 12:37:46 67° SW 12:42:34 10° SSW
CZ-2D R/B 3.0 12:40:24 42° E 12:41:17 45° ESE 12:46:33 10° S
ADEOS 4.0 12:43:26 55° ESE 12:43:38 55° ESE 12:48:49 10° S
IRS-1D 4.1 12:45:24 48° ESE 12:45:33 48° ESE 12:50:26 10° S
Cosmos 1447 Rocket 4.3 12:45:26 83° WNW 12:45:35 84° W 12:51:52 10° S
Cosmos 2278 Rocket 3.7 12:41:01 10° SW 12:44:10 24° WSW 12:44:10 24° WSW
COSMOS 2428 4.3 12:44:45 23° WSW 12:46:46 28° SW 12:51:46 10° SSE
Meteor 1-24 Rocket 3.7 12:51:10 73° SW 12:51:10 73° SW 12:56:42 10° S
Cosmos 371 Rocket 4.1 12:51:44 46° SW 12:51:44 46° SW 12:56:02 10° SSE
Lacrosse 4 Rocket 4.1 12:48:11 10° WSW 12:48:49 13° WSW 12:48:49 13° WSW
Cosmos 2369 Rocket 3.5 12:47:04 10° SSW 12:52:25 38° SE 12:55:48 20° ENE
Cosmos 540 Rocket 3.7 12:53:43 68° S 12:53:43 68° S 12:58:25 10° SSE
CZ-4B R/B 3.9 12:52:51 10° SSE 12:54:18 23° SSE 12:54:18 23° SSE
Cosmos 1867 3.8 12:51:14 10° SW 12:55:46 62° SW 12:55:46 62° SW
Resurs 1-4 Rocket 2.3 12:59:50 61° E 13:00:09 62° ESE 13:05:27 10° S
Meteor 2-12 Rocket 4.3 12:57:42 10° SSW 13:03:58 82° W 13:04:15 79° NW
Cosmos 1072 Rocket 4.3 12:57:41 10° S 13:04:02 87° W 13:04:25 80° N
ADEOS Rocket 3.6 13:03:12 36° ENE 13:04:51 46° ESE 13:10:12 10° S
Cosmos 2237 Rocket 2.8 13:05:24 44° WSW 13:06:00 46° SW 13:11:30 10° SSE
NPP 4.3 13:12:43 42° WSW 13:12:43 42° WSW 13:17:07 10° SSW
Cosmos 1300 4.3 13:12:40 10° S 13:15:45 33° SE 13:15:45 33° SE
Cosmos 1726 3.7 13:17:49 10° S 13:20:33 35° SE 13:20:33 35° SE
Meteor 1-21 Rocket 4.2 13:21:07 74° NNE 13:21:35 80° E 13:27:36 10° SSE
ALOS 2 4.2 13:21:24 10° S 13:24:42 26° SW 13:24:42 26° SW
CZ-4C R/B 2.8 13:21:47 10° SW 13:27:54 56° SE 13:33:15 10° ENE
Cosmos 2221 4.4 13:25:18 10° SSW 13:27:26 22° SW 13:27:26 22° SW
Landsat 5 4.3 13:26:22 10° S 13:29:52 49° SSW 13:29:52 49° SSW
Cosmos 1743 Rocket 4.0 13:31:43 57° ESE 13:31:43 57° ESE 13:35:49 10° SSE
ARIANE 5 R/B 2.5 13:31:39 72° WSW 13:31:39 72° WSW 13:36:39 10° SSW
Cosmos 2219 Rocket 4.0 13:29:27 19° WSW 13:31:45 24° SW 13:36:21 10° SSE
Cosmos 1513 Rocket 4.4 13:26:31 10° SSW 13:32:50 71° W 13:33:34 65° NW
In-Cosmos 22 4.4 13:34:32 52° WSW 13:34:33 52° WSW 13:39:48 10° S
SL-16 R/B 2.4 13:34:29 55° W 13:35:08 58° WSW 13:40:51 10° SSE
Cosmos 1515 Rocket 3.8 13:31:40 10° S 13:35:45 69° SSE 13:35:45 69° SSE
SME Rocket 3.4 13:35:44 10° S 13:39:21 63° SW 13:39:21 63° SW
Cosmos 2333 Rocket 3.9 13:40:53 19° WSW 13:43:11 25° SW 13:47:53 10° SSE
Okean O Rocket 3.4 13:42:35 17° ENE 13:45:12 31° ESE 13:49:11 10° S
Cosmos 1500 Rocket 3.8 13:46:41 62° E 13:46:41 62° E 13:50:55 10° SSE
Cosmos 1943 4.0 13:47:10 36° NE 13:48:19 40° ENE 13:53:34 10° SE
ATLAS 3B R/B 3.8 13:42:48 10° SW 13:49:36 46° SE 13:56:44 10° ENE
ATLAS 5 CENTAUR R/B 3.0 13:46:15 10° SW 13:49:31 33° WSW 13:49:31 33° WSW
Cosmos 1674 3.9 13:53:25 36° SSW 13:53:25 36° SSW 13:56:07 10° S
USA 229 DEB 4.1 13:54:34 37° WNW 13:57:29 60° SW 14:04:37 10° SE
USA 229 4.1 13:54:42 37° WNW 13:57:35 60° SW 14:04:45 10° SE
Cosmos 1943 Rocket 2.8 13:53:19 10° SSW 13:58:54 56° SE 14:04:21 10° NE
UNKNOWN OBJECT B 3.5 14:02:43 44° SSW 14:02:43 44° SSW 14:05:26 10° SSW
MOS 1 Rocket 4.4 14:00:24 20° NE 14:03:25 43° ESE 14:07:50 10° S
Cosmos 2228 Rocket 4.0 13:59:16 10° SSW 14:02:35 37° WSW 14:02:35 37° WSW
Cosmos 2034 Rocket 4.3 13:58:36 10° SSW 14:04:34 47° W 14:05:19 45° WNW
Tsikada Rocket 3.9 14:04:00 53° NNW 14:05:36 78° W 14:12:00 10° S
Cosmos 1538 Rocket 4.2 14:05:25 52° W 14:06:03 56° WSW 14:11:14 10° SSE
Cosmos 1680 Rocket 3.7 14:07:51 50° NNE 14:08:59 63° ENE 14:14:14 10° SSE
Cosmos 2058 3.3 14:08:56 53° ENE 14:09:23 56° E 14:13:34 10° SSE
Cosmos 1371 Rocket 4.3 14:06:09 10° SSW 14:11:36 70° ESE 14:15:25 19° NE
NOSS 3-1 (A) 4.0 14:08:53 42° NNW 14:12:02 79° NE 14:19:27 10° SE
Cosmos 1184 Rocket 4.2 14:13:01 36° E 14:13:03 36° E 14:16:17 10° SSE
Cosmos 923 Rocket 4.0 14:12:51 58° NNW 14:13:58 86° ENE 14:19:23 10° SSE
Cosmos 2151 2.9 14:13:43 75° NNE 14:14:01 81° E 14:18:23 10° SSE
Cosmos 1703 4.3 14:15:15 36° ENE 14:16:02 41° E 14:19:51 10° SSE
ATLAS 2AS CENTAUR R/B 3.9 14:14:19 19° NNE 14:17:16 26° ENE 14:22:14 10° ESE
Cosmos 1816 Rocket 4.5 14:18:36 46° NNW 14:20:31 73° W 14:26:53 10° S
SL-24 DEB 4.1 14:16:33 10° S 14:21:17 73° W 14:21:52 63° NW
CZ-2D R/B 3.1 14:21:45 32° W 14:21:45 32° W 14:26:27 10° SSW
CZ-4B R/B 3.3 14:22:56 39° ENE 14:23:56 52° ESE 14:27:34 10° S
PSLV R/B 3.9 14:20:17 10° S 14:24:28 66° WSW 14:24:38 65° W
Cosmos 1455 3.0 14:21:51 10° S 14:25:38 49° ESE 14:27:01 32° NE
CZ-4B R/B 3.5 14:23:47 15° NNE 14:28:31 72° ESE 14:34:10 10° SSW
ADEOS II 2.6 14:23:53 12° NNE 14:28:47 60° ESE 14:34:03 10° S
CZ-2D R/B 4.0 14:29:21 47° W 14:29:21 47° W 14:33:33 10° SSW
ISS -2.9 14:30:21 63° SE 14:30:21 63° SE 14:33:26 10° E
ERS-2 3.3 14:29:22 19° NE 14:31:46 44° ESE 14:35:24 10° S
Cosmos 1707 Rocket 3.8 14:28:27 10° S 14:32:57 70° E 14:35:00 31° NNE
Cosmos 921 Rocket 3.1 14:29:01 10° SSW 14:33:38 85° ESE 14:35:54 30° NNE
Coronas F rocket 3.3 14:34:46 26° SE 14:34:46 26° SE 14:36:16 10° SSE
Cosmos 1340 Rocket 2.9 14:34:14 60° W 14:34:27 61° WSW 14:38:33 10° S
NOSS 3-1 (C) 4.1 14:30:49 33° WNW 14:34:49 72° SW 14:42:09 10° SE
Sich 1 4.2 14:33:17 23° NNE 14:35:36 41° E 14:39:52 10° SSE
Cosmos 2369 Rocket 2.5 14:31:07 10° SW 14:36:35 45° WNW 14:37:29 42° NW
Meteor 1-27 4.3 14:32:35 10° SSW 14:38:10 60° W 14:40:08 39° NNW
PAYLOAD B 4.2 14:34:25 20° NNE 14:38:25 90° WNW 14:44:10 10° SSW
Resurs 1-4 Rocket 3.5 14:40:56 22° W 14:40:56 22° W 14:44:32 10° SW
Cosmos 1151 Rocket 4.0 14:39:41 10° SSW 14:43:05 30° WSW 14:43:05 30° WSW
Cosmos 1603 4.3 14:41:45 33° WNW 14:43:52 47° SW 14:49:28 10° SSE
USA 215 4.3 14:39:57 10° ESE 14:45:53 34° NE 14:49:40 20° N
Cosmos 1666 Rocket 4.0 14:46:15 27° NNE 14:48:25 58° E 14:52:47 10° SSE
ADEOS Rocket 3.6 14:50:10 30° WNW 14:50:39 30° W 14:55:33 10° SSW
GENESIS II 4.4 14:50:50 47° N 14:51:36 59° NE 14:55:23 10° SE
Cosmos 2112 Rocket 4.1 14:52:48 37° NW 14:54:49 67° WSW 15:00:06 10° SSE
Cosmos 1726 4.3 14:53:57 10° SW 14:55:09 15° WSW 14:55:09 15° WSW
SL-14 R/B 4.3 14:57:56 30° WSW 14:58:08 30° WSW 15:01:40 10° S
Cosmos 2180 Rocket 4.4 14:52:06 10° S 14:58:27 87° W 15:04:39 10° N
USA 238 DEB 4.1 14:53:33 10° SW 15:00:43 68° SE 15:07:47 10° NE
USA 238 4.1 14:53:38 10° SW 15:00:48 68° SE 15:07:52 10° NE
Cosmos 1634 Rocket 4.4 14:54:53 10° SSW 15:00:56 45° W 15:03:48 28° NW
CZ-4B DEB 4.2 14:58:27 18° N 15:02:41 66° WNW 15:08:19 10° SSW
SL-8 R/B 3.6 15:01:08 34° WNW 15:03:15 77° N 15:08:07 10° E
UNK 4.4 14:59:23 10° SSE 15:03:59 54° E 15:07:33 16° N
Cosmos 1626 2.1 15:03:11 45° NNW 15:04:14 70° W 15:08:05 10° S
PSLV R/B 3.5 15:01:12 19° N 15:04:15 81° WNW 15:08:44 10° SSW
SL-16 R/B 3.1 14:59:47 10° SSE 15:05:58 58° E 15:12:04 10° N
PSLV R/B 4.2 15:06:21 37° WNW 15:06:27 37° W 15:10:04 10° SSW
Cosmos 1607 4.0 15:04:22 10° SW 15:10:45 84° SE 15:16:58 10° NE
IRS-1C Rocket 4.3 15:08:55 24° NNW 15:11:55 49° W 15:17:07 10° SSW
SL-08 R/B 3.5 15:08:24 10° S 15:13:17 61° WSW 15:15:53 27° NW
Cosmos 1242 Rocket 2.7 15:10:18 10° SSW 15:13:53 50° W 15:14:52 38° NW
Cosmos 2279 Rocket 4.1 15:08:48 10° SSW 15:14:57 57° W 15:19:56 16° NNW
Cosmos 1656 Rocket 3.6 15:09:51 10° SSW 15:15:27 86° WNW 15:21:04 10° NNE
CZ-4C R/B 2.7 15:10:54 10° SW 15:16:05 33° WNW 15:19:30 17° N
Cosmos 1933 4.3 15:16:07 10° S 15:20:08 50° ESE 15:24:06 10° NNE
SL-16 R/B 4.3 15:17:02 10° WSW 15:20:34 16° SSW 15:24:07 10° S
Okean O Rocket 2.3 15:20:04 28° NW 15:21:30 35° W 15:25:41 10° SSW
Cosmos 1805 Rocket 4.0 15:19:58 29° NW 15:21:54 47° WSW 15:26:18 10° S
Cosmos 1470 Rocket 4.2 15:19:28 10° N 15:23:55 58° E 15:28:23 10° SSE
Cosmos 1633 Rocket 3.1 15:22:20 22° NNW 15:25:12 74° W 15:29:45 10° S
Aureole 1 Rocket 4.5 15:24:56 13° WSW 15:25:25 13° SW 15:27:04 10° SSW
Cosmos 2056 Rocket 3.9 15:21:06 10° SW 15:26:01 40° WNW 15:30:19 13° N
Cosmos 192 4.4 15:25:10 24° NW 15:28:06 65° WSW 15:33:05 10° SSE
Cosmos 1943 3.9 15:28:59 21° WNW 15:32:22 41° SW 15:37:46 10° SSE
Nadezhda 4 Rocket 4.0 15:26:30 10° N 15:32:40 85° E 15:38:56 10° S
SeaSat 1 3.1 15:28:19 10° NE 15:33:13 61° SE 15:38:10 10° SSW
SOZ 4.4 15:32:50 23° W 15:34:08 61° NNW 15:37:03 10° ENE
CZ-4B R/B 4.1 15:33:30 10° NNE 15:38:01 87° W 15:42:38 10° SSW
Meteor PRIRODA 3.8 15:36:41 10° N 15:40:25 57° W 15:44:15 10° SSW
ATLAS 3B R/B 2.9 15:33:34 10° SW 15:40:40 62° WNW 15:48:03 10° NNE
SL-27 R/B 3.4 15:37:15 10° N 15:40:41 47° ENE 15:44:17 10° SSE
USA 161 1.9 15:37:47 10° SSE 15:40:50 63° ENE 15:43:20 13° N
MOS 1 Rocket 4.4 15:39:44 20° NW 15:41:49 26° W 15:45:47 10° SW
Cosmos 1943 Rocket 3.0 15:37:39 10° SW 15:42:18 27° WNW 15:46:49 10° NNW
Cosmos 1932 4.5 15:38:58 10° SW 15:44:59 56° WNW 15:50:59 10° NNE
Cosmos 1420 Rocket 4.0 15:42:49 10° SSW 15:48:14 89° WNW 15:53:32 10° NNE
Aureole 3 3.8 15:46:43 10° N 15:50:47 81° E 15:56:07 10° SSE
COSMOS 2406 3.3 15:52:31 10° NNW 15:58:15 83° ENE 16:04:01 10° SSE
CENTAUR R/B 4.2 15:52:49 10° SW 15:58:41 32° SSE 16:04:00 10° E
Cosmos 1455 4.0 15:58:41 10° SW 16:00:56 15° W 16:01:58 14° WNW
Meteor 2-10 Rocket 3.7 15:59:51 10° SSW 16:05:33 88° ESE 16:10:56 10° N
ERS-2 3.8 16:04:09 14° WNW 16:05:43 17° W 16:08:20 10° SW
ISS -2.7 16:03:20 10° W 16:06:28 38° NNW 16:09:37 10° NE
Okean-O 3.2 16:02:38 10° NNW 16:06:50 39° W 16:11:06 10° SSW
Meteor 1-31 Rocket 3.2 16:03:35 10° NNW 16:07:14 39° W 16:10:55 10° SSW
ATLAS 2AS CENTAUR R/B 2.5 16:01:46 12° NW 16:07:35 73° SW 16:13:41 10° SE
Cosmos 1452 Rocket 3.9 16:02:39 10° SW 16:07:39 42° WNW 16:12:36 10° N
ADEOS II 3.3 16:04:50 10° NW 16:08:55 23° W 16:13:06 10° SW
Cosmos 1862 Rocket 4.2 16:08:17 10° SSW 16:12:33 39° W 16:16:46 10° NNW
Sich 1 4.4 16:10:18 12° WNW 16:13:30 24° WSW 16:17:11 10° SSW
Radarsat Rocket 4.0 16:10:47 10° N 16:16:32 56° WNW 16:22:26 10° SSW
Tiangong 2 3.4 16:16:12 10° NNW 16:18:03 15° NNE 16:19:54 10° ENE
NOAA 6 4.2 16:13:45 10° N 16:18:47 52° W 16:23:52 10° SSW
COSMOS 2455 3.1 16:14:15 10° SSW 16:20:21 78° SE 16:26:24 10° NE
Cosmos 1703 Rocket 3.5 16:15:55 10° SSW 16:20:26 78° W 16:24:50 10° N
ERBS 4.0 16:18:56 10° SW 16:22:14 35° SSE 16:25:31 10° E
Cosmos 1092 Rocket 4.1 16:16:06 10° NNW 16:22:15 60° WSW 16:28:33 10° S
Cosmos 1553 Rocket 4.3 16:18:18 10° S 16:24:32 76° E 16:30:38 10° NNE
Cosmos 2221 Rocket 3.6 16:21:59 10° S 16:26:33 84° W 16:31:06 10° N
CZ-3B R/B 4.3 16:16:53 10° WSW 16:28:59 67° NW 16:32:21 10° NE
Meteor 2-3 Rocket 4.0 16:23:44 10° N 16:29:21 77° E 16:35:03 10° SSE
USA 215 3.4 16:22:42 10° ESE 16:29:23 89° SW 16:36:01 10° WNW
PAYLOAD A 4.5 16:26:54 10° NNE 16:32:03 72° ESE 16:37:28 10° S
Cosmos 2084 4.0 16:28:19 10° SW 16:33:18 76° SE 16:38:01 10° NE
